Regional Weather Roundup
Issued by NWS Jackson, KY

Home | Current Version | Previous Version | Text Only | Print | Product List | Glossary On
Versions: 1 2 3 4 5 6 7 8 9 10 11 12 13 14 15 16 17 18 19 20 21 22 23 24 25 26 27 28 29 30 31 32 33 34 35 36 37 38 39 40 41 42 43 44 45 46 47 48 49 50
000
ASUS43 KJKL 021010
RWRJKL

EAST KENTUCKY HOURLY WEATHER ROUNDUP
NATIONAL WEATHER SERVICE JACKSON KY
600 AM EDT THU JUL 02 2015

NOTE: "FAIR" INDICATES FEW OR NO CLOUDS BELOW 12,000 FEET WITH
NO SIGNIFICANT WEATHER AND/OR OBSTRUCTIONS TO VISIBILITY.

* THESE REPORTS ARE NOT UNDER NWS QUALITY CONTROL AND MAY NOT
  REPORT WEATHER SUCH AS PRECIPITATION AND FOG.

KYZ079-080-083-085-087-088-110-112-115-119-120-021100
...EASTERN KENTUCKY...

CITY           SKY/WX    TMP DP  RH WIND       PRES   REMARKS
JACKSON        CLOUDY    67  65  93 CALM      29.95R FOG
LONDON         CLOUDY    66  62  87 CALM      29.95S FOG
MONTICELLO*    CLOUDY    67  67 100 CALM      29.97S FOG
HAZARD APT*    CLOUDY    66  66 100 SW5       29.96R
BLACK MTN*       N/A     59  59 100 SE3         N/A
PIKEVILLE APT* CLOUDY    64  64 100 CALM      29.96R FOG
MOREHEAD APT*  CLOUDY    68  66  94 S5        29.94R FOG
$$

KYZ035-036-041-042-044-050-067-078-099-021100
...CENTRAL KENTUCKY...

CITY           SKY/WX    TMP DP  RH WIND       PRES   REMARKS
FLEMING/MASON* FOG       68  68 100 CALM      29.93R VSB 1/2
LEXINGTON      LGT RAIN  69  67  93 SW5       29.92R FOG
FRANKFORT      LGT RAIN  69  67  93 S6        29.90R FOG
$$

KYZ091>093-OHZ055-061-077-WVZ005-015-034-035-042-021100
...SOUTHERN OHIO/WEST VIRGINIA...

CITY           SKY/WX    TMP DP  RH WIND       PRES   REMARKS
COVINGTON      CLOUDY    69  67  93 CALM      29.89S FOG
COLUMBUS       CLOUDY    62  59  90 CALM      29.91F
DAYTON         CLOUDY    65  60  84 CALM      29.92R
WILMINGTON     CLOUDY    64  60  87 E3        29.90R
HUNTINGTON     FOG       65  65 100 SW6       29.91R VSB 1/2
CHARLESTON     FOG       66  65  96 CALM      29.92S VSB 1
PINEVILLE*     CLOUDY    67  67 100 MISG      30.01R FOG
BECKLEY        LGT RAIN  64  62  93 NW5       29.99R FOG
BLUEFIELD      CLOUDY    66  60  81 W6        30.00S
$$

VAZ002-007-008-TNZ017-027-036-066-071-021100
...SOUTHWEST VIRGINIA/EAST TENNESSEE...

CITY           SKY/WX    TMP DP  RH WIND       PRES   REMARKS
BRISTOL        CLOUDY    67  65  93 SW3       29.99R
KNOXVILLE      LGT RAIN  67  65  93 SW7       29.96S
OAK RIDGE      CLOUDY    68  66  93 VRB3      29.98F FOG
NASHVILLE      LGT RAIN  71  71 100 VRB3      29.90F FOG
$$

...KEY TO REMARKS...
VSB - VISIBILITY IN MILES
WCI - WIND CHILL INDEX
HX  - HEAT INDEX

$$



USA.gov is the U.S. government's official web portal to all federal, state and local government web resources and services.